Regional Weather Roundup
Issued by NWS Midland/Odessa, TX

Home | Current Version | Previous Version | Text Only | Print | Product List | Glossary On
Versions: 1 2 3 4 5 6 7 8 9 10 11 12 13 14 15 16 17 18 19 20 21 22 23 24 25 26 27 28 29 30 31 32 33 34 35 36 37 38 39 40 41 42 43 44 45 46 47 48 49 50
000
ASUS44 KMAF 290902
RWRMAF
MIDLAND AREA WEATHER ROUNDUP
NATIONAL WEATHER SERVICE MIDLAND TX
300 AM CST SAT NOV 29 2014

...IN SOUTHWEST TEXAS AND SOUTHEAST NEW MEXICO...

CITY           SKY/WX    TMP DP  RH WIND       PRES   REMARKS
ALPINE         PTCLDY    52  22  31 SW9       30.13S
ANDREWS        FAIR      48  38  68 SW13G20   29.98S
ARTESIA        NOT AVBL
BIG SPRING     CLEAR     47  40  76 S9        30.00F
CARLSBAD       PTCLDY    34  24  67 CALM      29.95S
DRYDEN           N/A     44  40  85 N8        30.02S WCI  39
FORT STOCKTON  CLEAR     45  28  51 S9        30.00F
GUAD PASS      NOT AVBL
HOBBS          PTCLDY    37  21  52 S7        29.98S WCI  32
MARFA          PTCLDY    27  18  69 NE6       30.12S WCI  20
MIDLAND AIRPK  CLEAR     50  41  69 S12       29.99F
MIDLAND INTL   CLEAR     46  39  76 S7        29.98S
ODESSA         CLEAR     50  39  66 SW15      29.99S
PECOS          PTCLDY    34  22  60 CALM      29.98F
PRESIDIO       FAIR      47  26  44 N3        30.06R
SEMINOLE       CLEAR     37  25  61 CALM      29.98S
SNYDER         CLEAR     46  41  82 SW7       29.97F
WINK           CLEAR     37  26  64 SE7       29.97F WCI  32
$$
...OTHER STATIONS IN TEXAS...

CITY           SKY/WX    TMP DP  RH WIND       PRES   REMARKS
ABILENE        CLEAR     54  43  66 S13G23    29.96S
AMARILLO       CLEAR     49  22  34 SW13      29.83F
AUSTIN         CLEAR     56  53  90 S10       30.06F
BROWNSVILLE    CLEAR     64  60  87 S9        30.10F
CORPUS CHRISTI CLEAR     58  56  93 S6        30.09F
DALLAS FTW     PTCLDY    52  46  80 S13       29.94F
DEL RIO        CLEAR     50  45  83 E8        30.04S
EL PASO        CLEAR     42  19  39 CALM      30.05S
HOUSTON INT    PTCLDY    62  59  90 S6        30.09F
LUBBOCK        PTCLDY    44  21  40 W10       29.92S WCI  39
SAN ANGELO     CLEAR     56  45  66 S18G26    29.99F
SAN ANTONIO    CLEAR     57  53  86 SW8       30.08F
WACO           CLEAR     55  50  83 S12       30.01F
WICHITA FALLS  NOT AVBL
$$
...OTHER LOCATIONS IN NEW MEXICO...

CITY           SKY/WX    TMP DP  RH WIND       PRES   REMARKS
ALAMAGORDO     PTCLDY    41  12  30 CALM      30.06R
ALBUQUERQUE    PTCLDY    39  18  42 SE5       30.07R WCI  36
CANNON AFB     PTCLDY    46  20  35 SW6       29.93S
CLOVIS         CLEAR     43  19  39 W12       29.92F WCI  37
HOLLOMAN AFB   PTCLDY    32  15  49 N3        30.05S
ROSWELL        MOCLDY    35  26  69 NW5       29.96S WCI  31
RUIDOSO        CLEAR     41  10  28 W7        30.12S WCI  36
SANTA FE       CLEAR     41  16  36 W5        30.07S WCI  38
TRUTH OR CONSE CLEAR     35  18  49 W6        30.06S WCI  30
TUCUMCARI      CLEAR     55  20  25 W16       29.88F
$$



USA.gov is the U.S. government's official web portal to all federal, state and local government web resources and services.